Location: Mascot Post Office (historical)
(40.2645°N, 99.5462°W)
Time: 04:21:15
(UTC+00:00)

MOS 1-B Rocket - Visible Passes

Search period start: 31 October 2020 00:00
Search period end: 10 November 2020 00:00
Orbit: 891 x 1605 km, 99.0° (Epoch: 30 October)

Date Brightness Start Highest point End Pass type
(mag) Time Alt. Az. Time Alt. Az. Time Alt. Az.
31 Oct 7.2 05:14:14 10° N 05:14:45 12° N 05:14:45 12° N visible
01 Nov 7.2 05:11:05 10° N 05:11:28 11° N 05:11:28 11° N visible
02 Nov 7.2 05:07:56 10° N 05:08:12 11° N 05:08:12 11° N visible
03 Nov 7.2 05:04:48 10° N 05:04:55 10° N 05:04:55 10° N visible
